Powrót do katalogu

STARLINK-36564

AktywnyŁącznośćSSO
NORAD 67549·PAYLOAD·🇺🇸 United States

Wystrzelony Jan 22, 2026 z Vandenberg Space Force Base

Loading…

Następne Przeloty (najbliższe 24 godziny)

TLE

ŚwieżeSource: CelesTrak SupGP

Epoka: Sep 14, 2026, 21:18 UTC

1 67549C 26014T   26257.88798611 -.00023833  00000+0 -74012-3 0  2578
2 67549  97.2844 143.2862 0001875  93.5492 321.7779 15.33437385    15

Śledź STARLINK-36564 w czasie rzeczywistym z AllMySat

Download on the App Store